{"data":{"norad_id":69360,"intl_designator":"2026-123H","name":"STARLINK-37599","alt_names":[],"object_type":"PAYLOAD","status":"ACTIVE","operator":null,"country":"US","launch_date":"2026-06-04","launch_site_code":"AFETR","launch_vehicle":null,"mission":null,"orbit_class":"UNKNOWN","rcs_meters":null,"size_class":null,"mass_kg":null,"dimensions":null,"purposes":["comms"],"wikipedia_slug":null,"has_3d_model":false,"image_url":null,"decayed_at":null,"tle_current":{"epoch":"2026-09-20T01:29:39.676128Z","epoch_age_seconds":66755,"freshness":"FRESH","line1":"1 69360U 26123H   26263.06226477  .00014173  00000+0  42972-3 0  9993","line2":"2 69360  53.1588 143.7083 0001149  99.2429 260.8703 15.34406087 16801","mean_motion":15.34406087,"eccentricity":0.0001149,"inclination_deg":53.1588,"raan_deg":143.7083,"arg_perigee_deg":99.2429,"mean_anomaly_deg":260.8703,"bstar":0.00042972,"rev_number":1680,"period_min":93.847385786602,"perigee_km":461.89913795528,"apogee_km":463.47115888499,"semimajor_km":6840.8221484201,"source":"CELESTRAK","updated_at":"2026-09-20T09:00:44.165674Z"}}}